Jackpot

Texas Poker Multi Jackpot System

Kini Telah hadir Jackpot SUPER ROYAL FLUSH

Kini Telah hadir Jackpot 2000 (khusus table VIP keatas).

Ikutilah global jackpot yang tersedia di system kami, dengan system jackpot terbaru dan pertama di indonesia, anda dapat membeli jackpot dengan harga 100 rupiah saja dan menangkan hadiahnya hingga puluhan juta rupiah.

Jackpot bukanlah suatu keharusan untuk dibeli, namun kami memberikan suatu fitur tambahan untuk member tercinta dari www.inidewa.com.

Terdapat tiga pilihan harga jackpot yang bisa anda beli yaitu :100,500,1000 dan 2000(khusus table VIP Keatas) rupiah.

Hadiah dari Multi jackpot system www.inidewa.com

  1. full house x 10 harga jackpot yang anda beli.
      (contoh:anda membeli 1000 maka:1000 X10 = 10.000)
  2. four of kind x 250 harga jackpot yang anda beli
      (contoh:anda membeli 1000 maka:1000 X250 = 250.000)
  3. Straight flush x 1200
      (contoh:anda membeli 1000 maka:1000 X1200 = 1.200.000)
  4. Royal flush x 10000 harga jackpot yang anda beli
      (contoh:anda membeli 1000 maka:1000 X10000 = 10.000.000)
  5. SUPER ROYAL FLUSH x 30000 harga jackpot yang anda beli
      (contoh:anda membeli 1000 maka:1000 X30000 = 30.000.000)

Kondisi kartu

  1. full house adalah kondisi kartu dimana kartu anda dan kartu tengah dengan total 7 kartu bisa mendapatkan nilai 5 kartu dengan kombinasi 1 tris(three of kind) dan 1 pair, contoh 3 kartu 10 dan 2 kartu 5
  2. Four of kind adalah kondisi kartu dimana kartu anda dan kartu tengah dengan total 7 kartu bisa mendapatkan nilai 5 kartu dengan kombinasi 4 kartu yang sama jumlah dan 1 kartu apapun juga contoh anda mendapatkan 4 buah kartu angka 3 dan 1 kartu apapun.
  3. Staright flush adalah kondisi kartu dimana kartu anda dan kartu tengah dengan total 7 kartu bisa mendapatkan nilai 5 kartu dengan kombinasi seri / staright dengan kembang yang sama contoh : urutan kartu dari angka 5, 6, 7, 8 , 9 10 dengan kembang yg sama misalnya as hati
  4. Royal flush adalah kondisi kartu dimana kartu anda dan kartu tengah dengan total 7 kartu bisa mendapatkan nilai 5 kartu dengan kombinasi seri / staright dengan kembang yang sama tetapi kartu tersebut haruslah dimulai dari 10. contoh 10, Queen, Jack, King dan aces dengan kembang yang sama
  5. Super Royal flush adalah kondisi kartu dimana Kedua kartu anda digabung dengan 3 kartu pertama meja haruslah royal flush. contoh kartu anda 10,Queen kembang sama dan 3 kartu pertama meja adalah Jack, King dan aces dengan kembang yang sama

Demikian adalah penjelasan dari Multi Jackpot www.inidewa.com terima kasih dan selamat bermain salam hoki dari kami

Texas Poker Jackpot Winner

TOP SUPER ROYAL FLUSH
No.TanggalNamaPriceWin
125/02 01:13RONTOK123Super Royal flush15,000,000
224/02 23:07AYMAN69Super Royal flush15,000,000
324/02 21:55PAKCAMISuper Royal flush3,000,000
424/02 20:02KING051076Super Royal flush3,000,000
524/02 16:58YONOYONSuper Royal flush3,000,000
TOP ROYAL FLUSH
No.TanggalNamaPriceWin
125/02 02:00TANGGUH55Royal flush5,000,000
225/02 02:00JACKSBRORoyal flush5,000,000
325/02 01:53IPPYV6YLDKRoyal flush2,000,000
425/02 01:49MIMISJMRoyal flush2,000,000
525/02 01:48FHO29Royal flush10,000,000
TOP STRAIGHT FLUSH
No.TanggalNamaPriceWin
125/02 02:29ST4R1977Straight Flush240,000
225/02 02:28ASGAR77Straight Flush120,000
325/02 02:26SATRIAULU1Straight Flush240,000
425/02 02:26PRIBADOSStraight Flush600,000
525/02 02:25NAPRILL_KUStraight Flush600,000
LATEST JACKPOT
No.TanggalNamaPriceWin
125/02 02:29ABAY06Full House2,000
225/02 02:29HEANGMIFull House2,000
325/02 02:29CODETMAYORFull House2,000
425/02 02:29ENON12345Full House5,000
525/02 02:29BIGBOS88ZFour Of A Kind25,000
625/02 02:29F691483EFull House10,000
725/02 02:29CE62C263Full House1,000
825/02 02:29DIELHINDYFull House1,000
925/02 02:29PASIMA99Full House1,000
1025/02 02:29GTA8889Full House2,000
1125/02 02:29BRUNTUNG79Full House2,000
1225/02 02:29ADAMREGIFull House5,000
1325/02 02:29AAAALDOC97Full House5,000
1425/02 02:29OKIK03Full House2,000
1525/02 02:29E9F566B7Full House1,000
1625/02 02:29RIBUT55Four Of A Kind250,000
1725/02 02:29ANJING451Full House5,000
1825/02 02:29PLGMPHCOT12Full House2,000
1925/02 02:29NIRVANA555Full House2,000
2025/02 02:29RANOOWEFull House1,000
2125/02 02:29TALIKUTAN9Full House5,000
2225/02 02:29WAHAB111Full House5,000
2325/02 02:29LAPP45Full House10,000
2425/02 02:29KURAMA234Full House10,000
2525/02 02:29A2D99B8CFull House2,000
2625/02 02:29PENDOWO78Full House1,000
2725/02 02:29SEMARR2Full House1,000
2825/02 02:29KENZU005Full House10,000
2925/02 02:29PESONA911Full House2,000
3025/02 02:29JAAAY9Full House2,000
3125/02 02:29DONOX02Full House10,000
3225/02 02:29SUROMBESFull House10,000
3325/02 02:29LIEM123Full House1,000
3425/02 02:29PARNA_OKEFull House10,000
3525/02 02:29USAHA787Full House1,000
3625/02 02:29RAJESSSSSSSFull House2,000
3725/02 02:29BCT8NDKRY2Full House5,000
3825/02 02:29IPHOCANTIPFull House1,000
3925/02 02:29ST4R1977Straight Flush240,000
4025/02 02:29BASOR_88Full House5,000
4125/02 02:29VRV_DENAFour Of A Kind25,000
4225/02 02:29YANTOTENGIFull House2,000
4325/02 02:29GORENGGOHFull House2,000
4425/02 02:29SILOG888Full House2,000
4525/02 02:29YL05EH03HVFull House2,000
4625/02 02:29Y454M4NFull House5,000
4725/02 02:29KUBUTKPFull House20,000
4825/02 02:29SUMINTHAFull House1,000
4925/02 02:29TOGLE96Full House2,000
5025/02 02:29OSING57Full House2,000

Domino Multi Jackpot System

Ikutilah global jackpot yang tersedia di system kami, dengan system jackpot terbaru dan pertama di indonesia, anda dapat membeli jackpot dengan harga 100 rupiah saja dan menangkan hadiahnya hingga puluhan juta rupiah.

Jackpot bukanlah suatu keharusan untuk dibeli, namun kami memberikan suatu fitur tambahan untuk member tercinta dari www.inidewa.com.

Terdapat tiga pilihan harga jackpot yang bisa anda beli yaitu :100,500 dan 1000 rupiah.

Hadiah dari Multi jackpot system www.inidewa.com

  1. Murni Kecil x 50 harga jackpot yang anda beli.
      (contoh:anda membeli 1000 maka:1000 X 50 = 50.000)
  2. Murni Besar x 50 harga jackpot yang anda beli
      (contoh:anda membeli 1000 maka:1000 X 50 = 50.000)
  3. BALAK x 100 harga jackpot yang anda beli
      (contoh:anda membeli 1000 maka:1000 X 100 = 100.000)
  4. ENAM DEWA x 6666 harga jackpot yang anda beli
      (contoh:anda membeli 1000 maka:1000 X 6666 = 6.666.000)

Demikian adalah penjelasan dari Multi Jackpot www.inidewa.com terima kasih dan selamat bermain salam hoki dari kami

Domino Jackpot Winner

TOP ENAM DEWA
No.TanggalNamaPriceWin
125/02 01:45YTJ777murni enam6,666,000
225/02 00:00NALAGARIN9murni enam3,333,000
324/02 23:38DDB84DA8murni enam3,333,000
424/02 23:21JEL77murni enam6,666,000
524/02 21:57KIU2BAEmurni enam6,666,000
TOP BALAK
No.TanggalNamaPriceWin
125/02 02:25KICEP99balak50,000
225/02 02:24ARJUN33balak50,000
325/02 02:24SANQQ_888balak100,000
425/02 02:21SUN2011balak50,000
525/02 02:21QSXXbalak10,000
LATEST JACKPOT
No.TanggalNamaPriceWin
125/02 02:294L74Mmurni besar25,000
225/02 02:29DDB84DA8murni besar25,000
325/02 02:29JOLOT12murni kecil50,000
425/02 02:29ENENK99murni besar25,000
525/02 02:28JEXPOTDONGmurni besar50,000
625/02 02:27JEL77murni besar50,000
725/02 02:26JI3NK94murni kecil25,000
825/02 02:25CHEMMmurni kecil5,000
925/02 02:25LIMAS93murni kecil50,000
1025/02 02:25E6ZZ5608PAmurni kecil50,000
1125/02 02:25KICEP99balak50,000
1225/02 02:25AZZEL33murni kecil50,000
1325/02 02:24SASAK234murni kecil50,000
1425/02 02:24REMOT155murni besar50,000
1525/02 02:24AWIECOPE1murni besar50,000
1625/02 02:24ARJUN33balak50,000
1725/02 02:24SANQQ_888balak100,000
1825/02 02:23CAPUNG15murni kecil50,000
1925/02 02:23CAMPALLEmurni besar25,000
2025/02 02:22KATUWE1murni besar50,000
2125/02 02:22ANOA81murni kecil50,000
2225/02 02:22QNET987murni besar25,000
2325/02 02:22BOND37murni kecil50,000
2425/02 02:22CTRL78murni kecil25,000
2525/02 02:22INDRA69Pmurni besar50,000
2625/02 02:21SUN2011balak50,000
2725/02 02:21ANDICATUAKmurni besar50,000
2825/02 02:21TEUKU63murni kecil5,000
2925/02 02:21QSXXbalak10,000
3025/02 02:21ARIJAYA79murni besar5,000
3125/02 02:20SDFHJIEEYImurni besar25,000
3225/02 02:19TOBAQQbalak50,000
3325/02 02:19SAVALA1murni kecil5,000
3425/02 02:18SENOOTT8murni kecil5,000
3525/02 02:18JANTAN_003murni kecil25,000
3625/02 02:17ZZZXXX2525murni kecil25,000
3725/02 02:17NXTTOURmurni kecil25,000
3825/02 02:17GOBER95balak100,000
3925/02 02:17UJANK16murni besar50,000
4025/02 02:17SAMBILI10murni kecil50,000
4125/02 02:17DARUN11murni kecil25,000
4225/02 02:17JENY76lucky992,500
4325/02 02:16CUTZZZmurni kecil5,000
4425/02 02:16INDRA2000murni kecil50,000
4525/02 02:16ONGXX99balak100,000
4625/02 02:16DJ__LUCKYmurni besar50,000
4725/02 02:15DONALDUCK8murni kecil50,000
4825/02 02:15ALIE80murni besar50,000
4925/02 02:15LIEBEmurni kecil25,000
5025/02 02:14TAPAKDEW4_murni kecil5,000

Ceme Multi Jackpot System

Jackpot dilihat dari gabungan kartu pemain dengan kartu bandar. Bandar harus membeli jackpot sebanyak jumlah player yang sedang duduk. Sebagai contoh bila terdapat 3 pemain duduk bermain, dan bandar memutuskan untuk membeli jackpot Rp 1.000, maka pada periode tersebut bandar akan membeli jackpot sebanyak 3xRp1.000 = Rp3.000.

Jackpot bukanlah suatu keharusan untuk dibeli, namun kami memberikan suatu fitur tambahan untuk member tercinta dari www.inidewa.com.

Terdapat tiga pilihan harga jackpot yang bisa anda beli yaitu :100,500 dan 1000 rupiah.

Hadiah dari Multi jackpot system www.inidewa.com

  1. Murni Kecil x 50 harga jackpot yang anda beli.
      (contoh:anda membeli 1000 maka:1000 X 50 = 50.000)
  2. Murni Besar x 50 harga jackpot yang anda beli
      (contoh:anda membeli 1000 maka:1000 X 50 = 50.000)
  3. BALAK x 200 harga jackpot yang anda beli
      (contoh:anda membeli 1000 maka:1000 X 200 = 200.000)
  4. ENAM DEWA x 6666 harga jackpot yang anda beli
      (contoh:anda membeli 1000 maka:1000 X 6666 = 6.666.000)

Demikian adalah penjelasan dari Multi Jackpot www.inidewa.com terima kasih dan selamat bermain salam hoki dari kami

Ceme Jackpot Winner

TOP ENAM DEWA
No.TanggalNamaPriceWin
125/02 02:01SAR08DImurni enam6,666,000
225/02 01:52KASMAGAKmurni enam6,666,000
325/02 01:51JABON321murni enam6,666,000
425/02 01:51GJC7DCATLEmurni enam6,666,000
525/02 01:40MBOISBOSmurni enam6,666,000
TOP BALAK
No.TanggalNamaPriceWin
125/02 02:29GOJEK78balak200,000
225/02 02:29BONTOT32balak20,000
325/02 02:28MISSASIAbalak100,000
425/02 02:28VERAALONEbalak200,000
525/02 02:28YUCKE05balak200,000
LATEST JACKPOT
No.TanggalNamaPriceWin
125/02 02:29BENEH98murni besar25,000
225/02 02:29MANCO043murni besar50,000
325/02 02:29BUN999murni besar5,000
425/02 02:29MANIZZZmurni kecil50,000
525/02 02:29MIRACLE82murni kecil5,000
625/02 02:29GOJEK78balak200,000
725/02 02:29PANJUL097murni besar50,000
825/02 02:29MBOISBOSmurni besar50,000
925/02 02:29GEBID_13murni besar50,000
1025/02 02:29BONTOT32balak20,000
1125/02 02:28DARULFALAHmurni kecil50,000
1225/02 02:28SAR08DImurni kecil50,000
1325/02 02:28BENEH98murni kecil5,000
1425/02 02:28RIZKIALmurni kecil50,000
1525/02 02:28MISSASIAbalak100,000
1625/02 02:28VERAALONEbalak200,000
1725/02 02:28DWBTACHA29murni kecil50,000
1825/02 02:28R4NDY33murni kecil50,000
1925/02 02:28B3ND0Ymurni besar25,000
2025/02 02:28LUPITASARImurni besar25,000
2125/02 02:28PDX52murni besar50,000
2225/02 02:28YUCKE05balak200,000
2325/02 02:28KARANTINAmurni besar25,000
2425/02 02:27SANDROE77murni kecil50,000
2525/02 02:27BENEH98murni kecil5,000
2625/02 02:27RIZKIALmurni kecil50,000
2725/02 02:27ZERGImurni besar5,000
2825/02 02:27FORTUNA899murni besar50,000
2925/02 02:27GEONG98murni besar25,000
3025/02 02:27MOSA909murni besar50,000
3125/02 02:27DARKZLIU91balak200,000
3225/02 02:27DEMO55murni kecil50,000
3325/02 02:27MJRT09murni kecil25,000
3425/02 02:27KUSU7murni besar25,000
3525/02 02:26ZERGIbalak20,000
3625/02 02:26ANDRI2008balak20,000
3725/02 02:26ATMOKO11murni kecil50,000
3825/02 02:26KASMAGAKmurni kecil50,000
3925/02 02:26RICKIEAJBmurni kecil50,000
4025/02 02:26PUTR4A5murni kecil50,000
4125/02 02:26JANCOOK21balak20,000
4225/02 02:26RAH222murni kecil50,000
4325/02 02:26RUSNI123balak20,000
4425/02 02:25CHU_EXmurni kecil50,000
4525/02 02:25ASRUDImurni kecil50,000
4625/02 02:25ZEBA17murni besar5,000
4725/02 02:25K1NGDEW4murni kecil25,000
4825/02 02:25BCM23murni besar50,000
4925/02 02:25N090BR0M0murni besar5,000
5025/02 02:25LALAOXSmurni kecil25,000